User: anonymous   Login
Location: Muenchen
(48.1800°N, 11.5800°E)
Time: 07:06:54
(UTC+01:00)
Language:

Cosmos 2233 Rocket - Orbit

View from above orbital plane
View from above orbital plane
View from above satellite
View from above satellite

Ground track
Ground track

The orbit data is extracted from the following two-line orbital elements,

1 22488U 93008B   14332.18499361  .00000088  00000-0  72947-4 0    66
2 22488 082.9448 051.9725 0024153 318.5434 101.4587 13.77640447 95938
Epoch (UTC): 28 November 2014 04:26:23
Eccentricity: 0.0024153
inclination: 82.9448°
perigee height: 954 km
apogee height: 990 km
right ascension of ascending node: 51.9725°
argument of perigee: 318.5434°
revolutions per day: 13.77640447
mean anomaly at epoch: 101.4587°
orbit number at epoch: 9593

The dashed part of the orbit path shows where the satellite is in the earth's shadow,  

DLR